| time (UTC) | temp F | wind direction | speed knots | gust knots | rain 1hr in | rain 24hr in | rain mn in | humidity % | barometer mb |
| 20260902165510 | 95 | 181 | 1.7 | 5.2 | 0.00 | 0.00 | 0.00 | 51 | 1016.8 |
| 20260902165106 | 96 | 169 | 0.0 | 2.6 | 0.00 | 0.00 | 0.00 | 50 | 1016.9 |
| 20260902164503 | 96 | 1 | 1.7 | 2.6 | 0.00 | 0.00 | 0.00 | 50 | 1016.9 |
| 20260902164009 | 95 | 78 | 0.0 | 2.6 | 0.00 | 0.00 | 0.00 | 53 | 1016.9 |
| 20260902163602 | 95 | 41 | 0.0 | 2.6 | 0.00 | 0.00 | 0.00 | 52 | 1016.9 |
| 20260902163002 | 94 | 357 | 0.0 | 4.3 | 0.00 | 0.00 | 0.00 | 54 | 1017.0 |
| 20260902162509 | 94 | 1 | 0.9 | 4.3 | 0.00 | 0.00 | 0.00 | 51 | 1017.1 |
| 20260902162103 | 94 | 354 | 1.7 | 4.3 | 0.00 | 0.00 | 0.00 | 53 | 1017.1 |
| 20260902161504 | 93 | 9 | 0.0 | 2.6 | 0.00 | 0.00 | 0.00 | 54 | 1017.2 |
| 20260902161013 | 92 | 201 | 0.9 | 2.6 | 0.00 | 0.00 | 0.00 | 56 | 1017.2 |
| 20260902160603 | 92 | 209 | 0.0 | 3.5 | 0.00 | 0.00 | 0.00 | 56 | 1017.2 |
| 20260902160110 | 92 | 175 | 0.9 | 3.5 | 0.00 | 0.00 | 0.00 | 56 | 1017.3 |
| 20260902155509 | 92 | 210 | 0.0 | 2.6 | 0.00 | 0.00 | 0.00 | 57 | 1017.3 |
| 20260902155103 | 92 | 223 | 0.0 | 1.7 | 0.00 | 0.00 | 0.00 | 53 | 1017.4 |
| 20260902154502 | 92 | 348 | 0.0 | 2.6 | 0.00 | 0.00 | 0.00 | 54 | 1017.4 |
| 20260902154011 | 91 | 354 | 0.0 | 1.7 | 0.00 | 0.00 | 0.00 | 58 | 1017.4 |
| 20260902153604 | 91 | 325 | 0.0 | 1.7 | 0.00 | 0.00 | 0.00 | 58 | 1017.3 |
| 20260902153003 | 90 | 339 | 0.0 | 0.9 | 0.00 | 0.00 | 0.00 | 64 | 1017.4 |
| 20260902152509 | 90 | 309 | 0.0 | 0.9 | 0.00 | 0.00 | 0.00 | 67 | 1017.4 |
| 20260902152103 | 90 | 354 | 0.0 | 2.6 | 0.00 | 0.00 | 0.00 | 65 | 1017.4 |
| 20260902151503 | 89 | 349 | 0.9 | 2.6 | 0.00 | 0.00 | 0.00 | 60 | 1017.3 |
| 20260902151011 | 89 | 257 | 0.0 | 4.3 | 0.00 | 0.00 | 0.00 | 62 | 1017.4 |
| 20260902150603 | 88 | 257 | 0.0 | 4.3 | 0.00 | 0.00 | 0.00 | 67 | 1017.3 |
| 20260902150003 | 87 | 333 | 0.0 | 2.6 | 0.00 | 0.00 | 0.00 | 66 | 1017.4 |
| 20260902145510 | 86 | 327 | 0.0 | 2.6 | 0.00 | 0.00 | 0.00 | 66 | 1017.3 |
| 20260902145102 | 85 | 344 | 0.0 | 1.7 | 0.00 | 0.00 | 0.00 | 71 | 1017.3 |
| 20260902144503 | 84 | 193 | 0.0 | 0.9 | 0.00 | 0.00 | 0.00 | 78 | 1017.3 |
| 20260902144011 | 84 | 47 | 0.0 | 2.6 | 0.00 | 0.00 | 0.00 | 72 | 1017.3 |
| 20260902143604 | 83 | 47 | 0.0 | 2.6 | 0.00 | 0.00 | 0.00 | 77 | 1017.3 |
| 20260902143003 | 83 | 315 | 0.0 | 4.3 | 0.00 | 0.00 | 0.00 | 75 | 1017.2 |
| 20260902142510 | 82 | 306 | 0.0 | 4.3 | 0.00 | 0.00 | 0.00 | 80 | 1017.2 |
| 20260902142105 | 81 | 349 | 0.0 | 2.6 | 0.00 | 0.00 | 0.00 | 80 | 1017.1 |
| 20260902141503 | 80 | 347 | 0.0 | 1.7 | 0.00 | 0.00 | 0.00 | 79 | 1017.0 |
| 20260902141010 | 79 | 345 | 0.0 | 1.7 | 0.00 | 0.00 | 0.00 | 81 | 1017.0 |
| 20260902140607 | 78 | 315 | 0.0 | 2.6 | 0.00 | 0.00 | 0.00 | 87 | 1017.0 |
| 20260902140006 | 77 | 317 | 0.0 | 2.6 | 0.00 | 0.00 | 0.00 | 89 | 1017.0 |
| 20260902135509 | 76 | 252 | 0.0 | 0.9 | 0.00 | 0.00 | 0.00 | 93 | 1017.1 |
| 20260902135105 | 76 | 252 | 0.0 | 0.9 | 0.00 | 0.00 | 0.00 | 93 | 1017.1 |
| 20260902134503 | 75 | 252 | 0.0 | 0.0 | 0.00 | 0.00 | 0.00 | 95 | 1017.1 |
| 20260902134009 | 75 | 252 | 0.0 | 0.0 | 0.00 | 0.00 | 0.00 | 96 | 1017.1 |
| 20260902133603 | 74 | 252 | 0.0 | 0.0 | 0.00 | 0.00 | 0.00 | 96 | 1017.1 |
| 20260902133004 | 74 | 252 | 0.0 | 0.0 | 0.00 | 0.00 | 0.00 | 97 | 1017.2 |
| 20260902132514 | 73 | 252 | 0.0 | 0.0 | 0.00 | 0.00 | 0.00 | 97 | 1017.1 |
| 20260902132103 | 73 | 252 | 0.0 | 0.9 | 0.00 | 0.00 | 0.00 | 97 | 1017.2 |
| 20260902131503 | 73 | 252 | 0.0 | 0.9 | 0.00 | 0.00 | 0.00 | 97 | 1017.3 |
| 20260902131010 | 72 | 252 | 0.0 | 0.9 | 0.00 | 0.00 | 0.00 | 97 | 1017.3 |
| 20260902130604 | 72 | 252 | 0.0 | 0.9 | 0.00 | 0.00 | 0.00 | 97 | 1017.3 |
| 20260902130002 | 72 | 231 | 0.0 | 0.0 | 0.00 | 0.00 | 0.00 | 97 | 1017.3 |
| 20260902125509 | 71 | 231 | 0.0 | 0.0 | 0.00 | 0.00 | 0.00 | 97 | 1017.3 |
| 20260902124503 | 71 | 231 | 0.0 | 0.0 | 0.00 | 0.00 | 0.00 | 97 | 1017.5 |
| 20260902124009 | 70 | 231 | 0.0 | 0.0 | 0.00 | 0.00 | 0.00 | 97 | 1017.5 |
| 20260902123606 | 70 | 231 | 0.0 | 0.0 | 0.00 | 0.00 | 0.00 | 97 | 1017.5 |
| 20260902123002 | 70 | 231 | 0.0 | 0.0 | 0.00 | 0.00 | 0.00 | 97 | 1017.5 |
| 20260902122511 | 70 | 231 | 0.0 | 0.0 | 0.00 | 0.00 | 0.00 | 97 | 1017.5 |
| 20260902122103 | 70 | 231 | 0.0 | 0.0 | 0.00 | 0.00 | 0.00 | 97 | 1017.5 |
| 20260902121502 | 69 | 231 | 0.0 | 0.0 | 0.00 | 0.00 | 0.00 | 96 | 1017.5 |
| 20260902121009 | 69 | 231 | 0.0 | 0.0 | 0.00 | 0.00 | 0.00 | 97 | 1017.4 |
| 20260902120604 | 69 | 231 | 0.0 | 0.0 | 0.00 | 0.00 | 0.00 | 97 | 1017.4 |
| 20260902120004 | 69 | 231 | 0.0 | 0.0 | 0.00 | 0.00 | 0.00 | 96 | 1017.3 |
| 20260902115509 | 69 | 231 | 0.0 | 0.0 | 0.00 | 0.00 | 0.00 | 96 | 1017.3 |
| 20260902115102 | 69 | 231 | 0.0 | 0.0 | 0.00 | 0.00 | 0.00 | 96 | 1017.3 |
| 20260902114503 | 69 | 231 | 0.0 | 0.0 | 0.00 | 0.00 | 0.00 | 96 | 1017.2 |
| 20260902114010 | 69 | 231 | 0.0 | 0.0 | 0.00 | 0.00 | 0.00 | 96 | 1017.2 |
| 20260902113604 | 69 | 231 | 0.0 | 0.0 | 0.00 | 0.00 | 0.00 | 96 | 1017.2 |
| 20260902113003 | 69 | 231 | 0.0 | 0.0 | 0.00 | 0.00 | 0.00 | 96 | 1017.1 |
| 20260902112510 | 69 | 231 | 0.0 | 0.0 | 0.00 | 0.00 | 0.00 | 96 | 1017.0 |
| 20260902112104 | 69 | 231 | 0.0 | 0.0 | 0.00 | 0.00 | 0.00 | 96 | 1016.9 |
| 20260902111505 | 69 | 231 | 0.0 | 0.0 | 0.00 | 0.00 | 0.00 | 96 | 1016.9 |
| 20260902111009 | 69 | 231 | 0.0 | 0.0 | 0.00 | 0.00 | 0.00 | 96 | 1017.0 |
| 20260902110606 | 69 | 231 | 0.0 | 0.0 | 0.00 | 0.00 | 0.00 | 96 | 1016.9 |
| 20260902110005 | 69 | 231 | 0.0 | 0.0 | 0.00 | 0.00 | 0.00 | 96 | 1016.8 |
| 20260902105512 | 69 | 231 | 0.0 | 0.0 | 0.00 | 0.00 | 0.00 | 96 | 1016.8 |
| 20260902105102 | 69 | 231 | 0.0 | 0.0 | 0.00 | 0.00 | 0.00 | 96 | 1016.9 |
| 20260902104503 | 69 | 231 | 0.0 | 0.0 | 0.00 | 0.00 | 0.00 | 96 | 1016.9 |
| 20260902104009 | 69 | 231 | 0.0 | 0.0 | 0.00 | 0.00 | 0.00 | 96 | 1016.7 |
| 20260902103605 | 69 | 231 | 0.0 | 0.0 | 0.00 | 0.00 | 0.00 | 96 | 1016.7 |
| 20260902103003 | 69 | 231 | 0.0 | 0.0 | 0.00 | 0.00 | 0.00 | 96 | 1016.7 |
| 20260902102509 | 69 | 231 | 0.0 | 0.0 | 0.00 | 0.00 | 0.00 | 96 | 1016.7 |
| 20260902102107 | 69 | 231 | 0.0 | 0.0 | 0.00 | 0.00 | 0.00 | 96 | 1016.7 |
| 20260902101504 | 69 | 231 | 0.0 | 0.0 | 0.00 | 0.00 | 0.00 | 96 | 1016.7 |
| 20260902101009 | 69 | 231 | 0.0 | 0.0 | 0.00 | 0.00 | 0.00 | 96 | 1016.7 |
| 20260902100603 | 69 | 231 | 0.0 | 0.0 | 0.00 | 0.00 | 0.00 | 95 | 1016.7 |
| 20260902100003 | 69 | 231 | 0.0 | 0.0 | 0.00 | 0.00 | 0.00 | 95 | 1016.6 |
| 20260902095510 | 69 | 231 | 0.0 | 0.0 | 0.00 | 0.00 | 0.00 | 95 | 1016.6 |
| 20260902095103 | 69 | 231 | 0.0 | 0.0 | 0.00 | 0.00 | 0.00 | 96 | 1016.6 |
| 20260902094503 | 70 | 231 | 0.0 | 0.0 | 0.00 | 0.00 | 0.00 | 95 | 1016.7 |
| 20260902094012 | 70 | 231 | 0.0 | 0.0 | 0.00 | 0.00 | 0.00 | 95 | 1016.6 |
| 20260902093605 | 70 | 231 | 0.0 | 0.0 | 0.00 | 0.00 | 0.00 | 95 | 1016.6 |
| 20260902093002 | 70 | 231 | 0.0 | 0.0 | 0.00 | 0.00 | 0.00 | 95 | 1016.5 |
| 20260902092512 | 70 | 231 | 0.0 | 0.0 | 0.00 | 0.00 | 0.00 | 95 | 1016.5 |
| 20260902092105 | 70 | 231 | 0.0 | 0.0 | 0.00 | 0.00 | 0.00 | 95 | 1016.6 |
| 20260902091503 | 70 | 231 | 0.0 | 0.0 | 0.00 | 0.00 | 0.00 | 95 | 1016.5 |
| 20260902091008 | 70 | 231 | 0.0 | 0.0 | 0.00 | 0.00 | 0.00 | 95 | 1016.5 |
| 20260902090603 | 70 | 231 | 0.0 | 0.0 | 0.00 | 0.00 | 0.00 | 95 | 1016.5 |
| 20260902090002 | 70 | 231 | 0.0 | 0.0 | 0.00 | 0.00 | 0.00 | 95 | 1016.4 |
| 20260902085508 | 70 | 231 | 0.0 | 0.0 | 0.00 | 0.00 | 0.00 | 95 | 1016.3 |
| 20260902085104 | 70 | 231 | 0.0 | 0.0 | 0.00 | 0.00 | 0.00 | 95 | 1016.4 |
| 20260902084502 | 70 | 231 | 0.0 | 0.0 | 0.00 | 0.00 | 0.00 | 95 | 1016.3 |
| 20260902084010 | 70 | 231 | 0.0 | 0.0 | 0.00 | 0.00 | 0.00 | 95 | 1016.3 |
| 20260902083602 | 70 | 231 | 0.0 | 0.0 | 0.00 | 0.00 | 0.00 | 95 | 1016.3 |
| 20260902083002 | 70 | 231 | 0.0 | 0.0 | 0.00 | 0.00 | 0.00 | 95 | 1016.3 |
| 20260902082509 | 70 | 231 | 0.0 | 0.0 | 0.00 | 0.00 | 0.00 | 95 | 1016.3 |
| 20260902082103 | 70 | 231 | 0.0 | 0.0 | 0.00 | 0.00 | 0.00 | 95 | 1016.3 |
| 20260902081505 | 70 | 231 | 0.0 | 0.0 | 0.00 | 0.00 | 0.00 | 95 | 1016.2 |
| 20260902081009 | 70 | 231 | 0.0 | 0.0 | 0.00 | 0.00 | 0.00 | 95 | 1016.2 |
| 20260902080603 | 70 | 231 | 0.0 | 0.0 | 0.00 | 0.00 | 0.00 | 95 | 1016.1 |
| 20260902080002 | 70 | 231 | 0.0 | 0.0 | 0.00 | 0.00 | 0.00 | 95 | 1016.1 |
| 20260902075509 | 70 | 231 | 0.0 | 0.0 | 0.00 | 0.00 | 0.00 | 95 | 1016.1 |
| 20260902075103 | 70 | 231 | 0.0 | 0.0 | 0.00 | 0.00 | 0.00 | 95 | 1016.1 |
| 20260902074503 | 71 | 231 | 0.0 | 0.0 | 0.00 | 0.00 | 0.00 | 95 | 1016.2 |
| 20260902074010 | 71 | 231 | 0.0 | 0.0 | 0.00 | 0.00 | 0.00 | 95 | 1016.2 |
| 20260902073603 | 71 | 231 | 0.0 | 0.0 | 0.00 | 0.00 | 0.00 | 95 | 1016.2 |
| 20260902073008 | 71 | 231 | 0.0 | 0.0 | 0.00 | 0.00 | 0.00 | 95 | 1016.1 |
| 20260902072508 | 71 | 231 | 0.0 | 0.0 | 0.00 | 0.00 | 0.00 | 95 | 1016.1 |
| 20260902072105 | 71 | 231 | 0.0 | 0.0 | 0.00 | 0.00 | 0.00 | 94 | 1016.1 |
| 20260902071512 | 71 | 231 | 0.0 | 0.0 | 0.00 | 0.00 | 0.00 | 94 | 1016.2 |
| 20260902071011 | 71 | 231 | 0.0 | 0.0 | 0.00 | 0.00 | 0.00 | 94 | 1016.2 |
| 20260902070602 | 71 | 231 | 0.0 | 0.0 | 0.00 | 0.00 | 0.00 | 94 | 1016.2 |
| 20260902070007 | 71 | 231 | 0.0 | 0.0 | 0.00 | 0.00 | 0.00 | 94 | 1016.2 |
| 20260902065511 | 71 | 231 | 0.0 | 0.0 | 0.00 | 0.00 | 0.00 | 94 | 1016.2 |
| 20260902065105 | 71 | 231 | 0.0 | 0.0 | 0.00 | 0.00 | 0.00 | 94 | 1016.2 |
| 20260902064503 | 71 | 231 | 0.0 | 0.0 | 0.00 | 0.00 | 0.00 | 94 | 1016.2 |
| 20260902064008 | 71 | 231 | 0.0 | 0.0 | 0.00 | 0.00 | 0.00 | 94 | 1016.2 |
| 20260902063602 | 71 | 231 | 0.0 | 0.0 | 0.00 | 0.00 | 0.00 | 94 | 1016.2 |
| 20260902063003 | 71 | 231 | 0.0 | 0.0 | 0.00 | 0.00 | 0.00 | 94 | 1016.3 |
| 20260902062509 | 71 | 231 | 0.0 | 0.0 | 0.00 | 0.00 | 0.00 | 94 | 1016.3 |
| 20260902062103 | 71 | 231 | 0.0 | 0.0 | 0.00 | 0.00 | 0.00 | 94 | 1016.3 |
| 20260902061505 | 72 | 231 | 0.0 | 0.0 | 0.00 | 0.00 | 0.00 | 94 | 1016.3 |
| 20260902061009 | 72 | 231 | 0.0 | 0.0 | 0.00 | 0.00 | 0.00 | 94 | 1016.2 |
| 20260902060602 | 72 | 231 | 0.0 | 0.0 | 0.00 | 0.00 | 0.00 | 94 | 1016.2 |
| 20260902060007 | 72 | 231 | 0.0 | 0.0 | 0.00 | 0.00 | 0.00 | 94 | 1016.3 |
| 20260902055508 | 72 | 231 | 0.0 | 0.0 | 0.00 | 0.00 | 0.00 | 94 | 1016.2 |
| 20260902055103 | 72 | 231 | 0.0 | 0.0 | 0.00 | 0.00 | 0.00 | 94 | 1016.1 |
| 20260902054503 | 72 | 231 | 0.0 | 0.0 | 0.00 | 0.00 | 0.00 | 94 | 1016.2 |
| 20260902054009 | 72 | 231 | 0.0 | 0.0 | 0.00 | 0.00 | 0.00 | 94 | 1016.1 |
| 20260902053603 | 72 | 231 | 0.0 | 0.0 | 0.00 | 0.00 | 0.00 | 94 | 1016.1 |
| 20260902053003 | 72 | 231 | 0.0 | 0.0 | 0.00 | 0.00 | 0.00 | 93 | 1016.2 |
| 20260902052509 | 72 | 231 | 0.0 | 0.0 | 0.00 | 0.00 | 0.00 | 93 | 1016.1 |
| 20260902052103 | 72 | 231 | 0.0 | 0.0 | 0.00 | 0.00 | 0.00 | 93 | 1016.1 |
| 20260902051502 | 72 | 231 | 0.0 | 0.0 | 0.00 | 0.00 | 0.00 | 93 | 1016.0 |
| 20260902051010 | 72 | 231 | 0.0 | 0.0 | 0.00 | 0.00 | 0.00 | 93 | 1016.0 |
| 20260902050606 | 72 | 231 | 0.0 | 0.0 | 0.00 | 0.00 | 0.00 | 93 | 1016.1 |
| 20260902050004 | 72 | 231 | 0.0 | 0.0 | 0.00 | 0.00 | 0.00 | 93 | 1016.1 |
| 20260902045510 | 73 | 231 | 0.0 | 0.9 | 0.00 | 0.00 | 0.00 | 93 | 1016.0 |
| 20260902045103 | 73 | 231 | 0.0 | 0.9 | 0.00 | 0.00 | 0.00 | 93 | 1015.9 |
| 20260902044501 | 73 | 231 | 0.0 | 0.0 | 0.00 | 0.00 | 0.00 | 93 | 1016.0 |
| 20260902044009 | 73 | 231 | 0.0 | 0.0 | 0.00 | 0.00 | 0.00 | 93 | 1016.0 |
| 20260902043602 | 73 | 231 | 0.0 | 0.0 | 0.00 | 0.00 | 0.00 | 93 | 1016.0 |
| 20260902043003 | 73 | 231 | 0.0 | 0.0 | 0.00 | 0.00 | 0.00 | 92 | 1015.8 |
| 20260902042510 | 73 | 231 | 0.0 | 0.0 | 0.00 | 0.00 | 0.00 | 92 | 1015.7 |
| 20260902042103 | 73 | 231 | 0.0 | 0.0 | 0.00 | 0.00 | 0.00 | 92 | 1015.8 |
| 20260902041505 | 73 | 231 | 0.0 | 0.0 | 0.00 | 0.00 | 0.00 | 92 | 1015.8 |
| 20260902041003 | 73 | 231 | 0.0 | 0.0 | 0.00 | 0.00 | 0.00 | 92 | 1015.8 |
| 20260902040503 | 73 | 231 | 0.0 | 0.0 | 0.00 | 0.00 | 0.00 | 92 | 1015.9 |
| 20260902040008 | 73 | 231 | 0.0 | 0.0 | 0.00 | 0.00 | 0.00 | 92 | 1016.0 |
| 20260902035602 | 74 | 231 | 0.0 | 0.0 | 0.00 | 0.00 | 0.00 | 91 | 1016.0 |
| 20260902035003 | 74 | 231 | 0.0 | 0.0 | 0.00 | 0.00 | 0.00 | 91 | 1016.0 |
| 20260902034509 | 74 | 231 | 0.0 | 0.0 | 0.00 | 0.00 | 0.00 | 91 | 1015.9 |
| 20260902034104 | 74 | 231 | 0.0 | 0.0 | 0.00 | 0.00 | 0.00 | 91 | 1015.8 |
| 20260902033502 | 74 | 231 | 0.0 | 0.0 | 0.00 | 0.00 | 0.00 | 91 | 1015.8 |
| 20260902033009 | 74 | 231 | 0.0 | 0.0 | 0.00 | 0.00 | 0.00 | 91 | 1015.8 |
| 20260902032602 | 74 | 231 | 0.0 | 0.0 | 0.00 | 0.00 | 0.00 | 91 | 1015.9 |
| 20260902032003 | 74 | 231 | 0.0 | 0.0 | 0.00 | 0.00 | 0.00 | 91 | 1015.8 |
| 20260902031509 | 74 | 231 | 0.0 | 0.0 | 0.00 | 0.00 | 0.00 | 91 | 1015.8 |
| 20260902031104 | 74 | 231 | 0.0 | 0.0 | 0.00 | 0.00 | 0.00 | 91 | 1015.7 |
| 20260902030503 | 74 | 231 | 0.0 | 0.0 | 0.00 | 0.00 | 0.00 | 90 | 1015.8 |
| 20260902030009 | 74 | 231 | 0.0 | 0.0 | 0.00 | 0.00 | 0.00 | 90 | 1015.8 |
| 20260902025603 | 75 | 231 | 0.0 | 0.0 | 0.00 | 0.00 | 0.00 | 90 | 1015.8 |
| 20260902025003 | 75 | 231 | 0.0 | 0.0 | 0.00 | 0.00 | 0.00 | 90 | 1015.8 |
| 20260902024512 | 75 | 231 | 0.0 | 0.0 | 0.00 | 0.00 | 0.00 | 90 | 1015.8 |
| 20260902024103 | 75 | 231 | 0.0 | 0.9 | 0.00 | 0.00 | 0.00 | 89 | 1015.8 |
| 20260902023503 | 75 | 231 | 0.0 | 0.9 | 0.00 | 0.00 | 0.00 | 89 | 1015.8 |
| 20260902023016 | 75 | 231 | 0.0 | 0.0 | 0.00 | 0.00 | 0.00 | 89 | 1015.7 |
| 20260902022606 | 75 | 231 | 0.0 | 0.0 | 0.00 | 0.00 | 0.00 | 89 | 1015.7 |
| 20260902022003 | 75 | 231 | 0.0 | 0.0 | 0.00 | 0.00 | 0.00 | 88 | 1015.7 |
| 20260902021508 | 75 | 231 | 0.0 | 0.0 | 0.00 | 0.00 | 0.00 | 88 | 1015.7 |
| 20260902021103 | 75 | 231 | 0.0 | 0.0 | 0.00 | 0.00 | 0.00 | 88 | 1015.6 |
| 20260902020505 | 76 | 231 | 0.0 | 0.0 | 0.00 | 0.00 | 0.00 | 88 | 1015.6 |
| 20260902020008 | 76 | 231 | 0.0 | 0.0 | 0.00 | 0.00 | 0.00 | 88 | 1015.5 |
| 20260902015602 | 76 | 231 | 0.0 | 0.0 | 0.00 | 0.00 | 0.00 | 87 | 1015.4 |
| 20260902015003 | 76 | 231 | 0.0 | 0.0 | 0.00 | 0.00 | 0.00 | 87 | 1015.3 |
| 20260902014511 | 76 | 231 | 0.0 | 0.0 | 0.00 | 0.00 | 0.00 | 87 | 1015.2 |
| 20260902014104 | 76 | 231 | 0.0 | 0.0 | 0.00 | 0.00 | 0.00 | 87 | 1015.2 |
| 20260902013503 | 77 | 231 | 0.0 | 0.0 | 0.00 | 0.00 | 0.00 | 86 | 1015.1 |
| 20260902013008 | 77 | 231 | 0.0 | 0.0 | 0.00 | 0.00 | 0.00 | 86 | 1015.0 |
| 20260902012603 | 77 | 231 | 0.0 | 0.0 | 0.00 | 0.00 | 0.00 | 86 | 1015.0 |
| 20260902012002 | 77 | 231 | 0.0 | 0.0 | 0.00 | 0.00 | 0.00 | 85 | 1015.0 |
| 20260902011512 | 77 | 231 | 0.0 | 0.0 | 0.00 | 0.00 | 0.00 | 85 | 1015.0 |
| 20260902011103 | 78 | 231 | 0.0 | 0.0 | 0.00 | 0.00 | 0.00 | 85 | 1015.0 |
| 20260902010502 | 78 | 231 | 0.0 | 0.0 | 0.00 | 0.00 | 0.00 | 84 | 1014.9 |
| 20260902010014 | 78 | 231 | 0.0 | 0.0 | 0.00 | 0.00 | 0.00 | 84 | 1014.9 |
| 20260902005603 | 78 | 231 | 0.0 | 0.0 | 0.00 | 0.00 | 0.00 | 84 | 1014.8 |
| 20260902005002 | 79 | 231 | 0.0 | 0.0 | 0.00 | 0.00 | 0.00 | 84 | 1014.7 |
| 20260902004508 | 79 | 231 | 0.0 | 0.0 | 0.00 | 0.00 | 0.00 | 83 | 1014.7 |
| 20260902004102 | 79 | 231 | 0.0 | 0.0 | 0.00 | 0.00 | 0.00 | 83 | 1014.7 |
| 20260902003502 | 79 | 231 | 0.0 | 0.0 | 0.00 | 0.00 | 0.00 | 82 | 1014.7 |
| 20260902003009 | 80 | 231 | 0.0 | 0.0 | 0.00 | 0.00 | 0.00 | 82 | 1014.7 |
| 20260902002604 | 80 | 231 | 0.0 | 0.0 | 0.00 | 0.00 | 0.00 | 81 | 1014.7 |
| 20260902002005 | 80 | 231 | 0.0 | 0.0 | 0.00 | 0.00 | 0.00 | 80 | 1014.6 |
| 20260902001509 | 81 | 231 | 0.0 | 0.0 | 0.00 | 0.00 | 0.00 | 79 | 1014.6 |
| 20260902001102 | 81 | 231 | 0.0 | 0.0 | 0.00 | 0.00 | 0.00 | 79 | 1014.6 |
| 20260902000502 | 82 | 231 | 0.0 | 0.0 | 0.00 | 0.00 | 0.00 | 78 | 1014.6 |
| 20260902000013 | 82 | 231 | 0.0 | 0.0 | 0.00 | 0.00 | 0.00 | 78 | 1014.6 |
| 20260901235603 | 82 | 231 | 0.0 | 0.0 | 0.00 | 0.00 | 0.00 | 77 | 1014.6 |
| 20260901235005 | 83 | 231 | 0.0 | 0.0 | 0.00 | 0.00 | 0.00 | 75 | 1014.7 |
| 20260901234508 | 83 | 231 | 0.0 | 0.0 | 0.00 | 0.00 | 0.00 | 74 | 1014.7 |
| 20260901234103 | 84 | 231 | 0.0 | 0.0 | 0.00 | 0.00 | 0.00 | 74 | 1014.7 |
| 20260901233504 | 84 | 231 | 0.0 | 0.0 | 0.00 | 0.00 | 0.00 | 73 | 1014.7 |
| 20260901233012 | 84 | 231 | 0.0 | 0.0 | 0.00 | 0.00 | 0.00 | 73 | 1014.7 |
| 20260901232603 | 85 | 231 | 0.0 | 0.0 | 0.00 | 0.00 | 0.00 | 72 | 1014.8 |
| 20260901232003 | 85 | 231 | 0.0 | 0.0 | 0.00 | 0.00 | 0.00 | 70 | 1014.9 |
| 20260901231509 | 85 | 231 | 0.0 | 0.0 | 0.00 | 0.00 | 0.00 | 69 | 1014.8 |
| 20260901231104 | 86 | 231 | 0.0 | 0.0 | 0.00 | 0.00 | 0.00 | 69 | 1014.9 |
| 20260901230503 | 86 | 231 | 0.0 | 0.0 | 0.00 | 0.00 | 0.00 | 67 | 1015.0 |
| 20260901230016 | 86 | 231 | 0.0 | 0.0 | 0.00 | 0.00 | 0.00 | 67 | 1014.9 |
| 20260901225603 | 87 | 231 | 0.0 | 0.0 | 0.00 | 0.00 | 0.00 | 66 | 1015.0 |
| 20260901225002 | 87 | 231 | 0.0 | 0.0 | 0.00 | 0.00 | 0.00 | 66 | 1015.0 |
| 20260901224509 | 87 | 231 | 0.0 | 0.0 | 0.00 | 0.00 | 0.00 | 64 | 1015.0 |
| 20260901224103 | 88 | 231 | 0.0 | 0.0 | 0.00 | 0.00 | 0.00 | 63 | 1015.0 |
| 20260901223502 | 88 | 231 | 0.0 | 0.9 | 0.00 | 0.00 | 0.00 | 64 | 1015.0 |
| 20260901223023 | 89 | 231 | 0.0 | 0.9 | 0.00 | 0.00 | 0.00 | 63 | 1014.9 |
| 20260901222604 | 89 | 243 | 0.0 | 0.9 | 0.00 | 0.00 | 0.00 | 62 | 1014.9 |
| 20260901222002 | 89 | 245 | 0.0 | 4.3 | 0.00 | 0.00 | 0.00 | 59 | 1014.9 |
| 20260901221508 | 90 | 274 | 0.0 | 4.3 | 0.00 | 0.00 | 0.00 | 59 | 1014.8 |
| 20260901221105 | 90 | 335 | 0.0 | 2.6 | 0.00 | 0.00 | 0.00 | 59 | 1014.8 |
| 20260901220502 | 91 | 183 | 0.0 | 2.6 | 0.00 | 0.00 | 0.00 | 56 | 1014.7 |
| 20260901220008 | 91 | 347 | 0.0 | 2.6 | 0.00 | 0.00 | 0.00 | 54 | 1014.7 |
| 20260901215603 | 91 | 3 | 0.9 | 2.6 | 0.00 | 0.00 | 0.00 | 54 | 1014.6 |
| 20260901215002 | 91 | 93 | 0.0 | 1.7 | 0.00 | 0.00 | 0.00 | 50 | 1014.6 |
| 20260901214513 | 91 | 209 | 0.0 | 1.7 | 0.00 | 0.00 | 0.00 | 55 | 1014.6 |
| 20260901214102 | 92 | 288 | 0.0 | 1.7 | 0.00 | 0.00 | 0.00 | 55 | 1014.7 |
| 20260901213502 | 93 | 239 | 0.0 | 3.5 | 0.00 | 0.00 | 0.00 | 55 | 1014.8 |
| 20260901213008 | 94 | 318 | 0.9 | 3.5 | 0.00 | 0.00 | 0.00 | 46 | 1015.0 |
| 20260901212604 | 94 | 46 | 0.0 | 5.2 | 0.00 | 0.00 | 0.00 | 46 | 1015.0 |
| 20260901212002 | 95 | 323 | 0.0 | 5.2 | 0.00 | 0.00 | 0.00 | 45 | 1014.9 |
| 20260901211520 | 95 | 4 | 0.0 | 2.6 | 0.00 | 0.00 | 0.00 | 46 | 1015.0 |
| 20260901211102 | 96 | 315 | 0.0 | 2.6 | 0.00 | 0.00 | 0.00 | 42 | 1015.0 |
| 20260901210502 | 96 | 34 | 0.9 | 3.5 | 0.00 | 0.00 | 0.00 | 42 | 1015.0 |
| 20260901210009 | 96 | 360 | 0.0 | 3.5 | 0.00 | 0.00 | 0.00 | 41 | 1014.9 |
| 20260901205602 | 97 | 295 | 1.7 | 2.6 | 0.00 | 0.00 | 0.00 | 43 | 1014.9 |
| 20260901205002 | 97 | 155 | 0.0 | 3.5 | 0.00 | 0.00 | 0.00 | 40 | 1014.9 |
| 20260901204513 | 97 | 346 | 0.0 | 3.5 | 0.00 | 0.00 | 0.00 | 42 | 1015.0 |
| 20260901204102 | 97 | 11 | 0.0 | 1.7 | 0.00 | 0.00 | 0.00 | 45 | 1015.0 |
| 20260901203503 | 97 | 79 | 0.0 | 1.7 | 0.00 | 0.00 | 0.00 | 44 | 1015.0 |
| 20260901203009 | 97 | 305 | 0.0 | 3.5 | 0.00 | 0.00 | 0.00 | 44 | 1015.0 |
| 20260901202603 | 97 | 342 | 0.9 | 3.5 | 0.00 | 0.00 | 0.00 | 42 | 1015.1 |
| 20260901202003 | 97 | 136 | 0.0 | 2.6 | 0.00 | 0.00 | 0.00 | 44 | 1015.1 |
| 20260901201509 | 97 | 44 | 0.0 | 3.5 | 0.00 | 0.00 | 0.00 | 41 | 1015.2 |
| 20260901201103 | 97 | 8 | 0.0 | 3.5 | 0.00 | 0.00 | 0.00 | 43 | 1015.2 |
| 20260901200502 | 97 | 152 | 0.0 | 5.2 | 0.00 | 0.00 | 0.00 | 44 | 1015.3 |
| 20260901200032 | 97 | 306 | 0.0 | 5.2 | 0.00 | 0.00 | 0.00 | 42 | 1015.3 |
| 20260901195602 | 96 | 347 | 0.9 | 5.2 | 0.00 | 0.00 | 0.00 | 42 | 1015.3 |
| 20260901195003 | 95 | 51 | 0.0 | 0.9 | 0.00 | 0.00 | 0.00 | 44 | 1015.3 |
| 20260901194509 | 95 | 149 | 0.0 | 0.0 | 0.00 | 0.00 | 0.00 | 48 | 1015.4 |
| 20260901194102 | 95 | 135 | 0.0 | 0.9 | 0.00 | 0.00 | 0.00 | 51 | 1015.5 |
| 20260901193503 | 96 | 133 | 0.0 | 2.6 | 0.00 | 0.00 | 0.00 | 50 | 1015.4 |
| 20260901193009 | 97 | 4 | 0.0 | 2.6 | 0.00 | 0.00 | 0.00 | 45 | 1015.5 |
| 20260901192606 | 97 | 253 | 0.0 | 0.9 | 0.00 | 0.00 | 0.00 | 43 | 1015.5 |
| 20260901192003 | 97 | 176 | 0.0 | 3.5 | 0.00 | 0.00 | 0.00 | 42 | 1015.5 |
| 20260901191509 | 97 | 322 | 0.9 | 6.1 | 0.00 | 0.00 | 0.00 | 45 | 1015.7 |
| 20260901191103 | 96 | 347 | 0.9 | 6.1 | 0.00 | 0.00 | 0.00 | 45 | 1015.7 |
| 20260901190502 | 95 | 197 | 0.0 | 5.2 | 0.00 | 0.00 | 0.00 | 48 | 1015.8 |
| 20260901190009 | 95 | 184 | 0.9 | 5.2 | 0.00 | 0.00 | 0.00 | 49 | 1015.8 |
| 20260901185603 | 95 | 217 | 0.9 | 4.3 | 0.00 | 0.00 | 0.00 | 49 | 1016.0 |
| 20260901185003 | 95 | 184 | 0.0 | 4.3 | 0.00 | 0.00 | 0.00 | 51 | 1016.0 |
| 20260901184510 | 94 | 137 | 0.0 | 2.6 | 0.00 | 0.00 | 0.00 | 55 | 1016.1 |
| 20260901184103 | 94 | 183 | 0.0 | 5.2 | 0.00 | 0.00 | 0.00 | 49 | 1016.2 |
| 20260901183501 | 94 | 349 | 0.0 | 2.6 | 0.00 | 0.00 | 0.00 | 46 | 1016.1 |
| 20260901183009 | 95 | 125 | 0.0 | 4.3 | 0.00 | 0.00 | 0.00 | 51 | 1016.2 |
| 20260901182602 | 95 | 146 | 0.0 | 4.3 | 0.00 | 0.00 | 0.00 | 51 | 1016.2 |
| 20260901182003 | 96 | 323 | 0.9 | 3.5 | 0.00 | 0.00 | 0.00 | 51 | 1016.2 |
| 20260901181509 | 96 | 302 | 0.0 | 3.5 | 0.00 | 0.00 | 0.00 | 48 | 1016.2 |
| 20260901181102 | 96 | 348 | 0.0 | 1.7 | 0.00 | 0.00 | 0.00 | 47 | 1016.2 |
| 20260901180502 | 96 | 341 | 0.0 | 4.3 | 0.00 | 0.00 | 0.00 | 49 | 1016.3 |
| 20260901180023 | 95 | 340 | 0.9 | 4.3 | 0.00 | 0.00 | 0.00 | 47 | 1016.1 |
| 20260901175605 | 95 | 145 | 0.0 | 4.3 | 0.00 | 0.00 | 0.00 | 47 | 1016.2 |
| 20260901175002 | 95 | 152 | 0.0 | 3.5 | 0.00 | 0.00 | 0.00 | 50 | 1016.3 |
| 20260901174509 | 95 | 32 | 0.0 | 3.5 | 0.00 | 0.00 | 0.00 | 49 | 1016.4 |
| 20260901174103 | 95 | 195 | 0.0 | 1.7 | 0.00 | 0.00 | 0.00 | 48 | 1016.4 |
| 20260901173503 | 95 | 201 | 0.0 | 4.3 | 0.00 | 0.00 | 0.00 | 54 | 1016.4 |
| 20260901173009 | 95 | 299 | 0.0 | 3.5 | 0.00 | 0.00 | 0.00 | 54 | 1016.4 |
| 20260901172602 | 94 | 311 | 0.9 | 3.5 | 0.00 | 0.00 | 0.00 | 54 | 1016.4 |
| 20260901172003 | 94 | 161 | 0.0 | 2.6 | 0.00 | 0.00 | 0.00 | 52 | 1016.5 |
| 20260901171509 | 94 | 39 | 0.0 | 5.2 | 0.00 | 0.00 | 0.00 | 50 | 1016.4 |
| 20260901171103 | 94 | 351 | 1.7 | 5.2 | 0.00 | 0.00 | 0.00 | 52 | 1016.5 |
| 20260901170503 | 94 | 231 | 0.0 | 5.2 | 0.00 | 0.00 | 0.00 | 54 | 1016.5 |
| 20260901170013 | 94 | 350 | 0.0 | 5.2 | 0.00 | 0.00 | 0.00 | 54 | 1016.6 |